Location: Borojevi?i
(45.0486°N, 16.2297°E)
Time: 05:39:32
(UTC+00:00)

Cosmos 1515 - Pass Details

Date: 08 August 2020
Orbit: 505 x 517 km, 82.5° (Epoch: 19 September)

Event Time Altitude Azimuth Distance (km) Brightness Sun altitude
Rises 21:13:08 0° 347° (NNW) 2,647 8.6 -24.4°
Reaches altitude 10° 21:15:19 10° 343° (NNW) 1,753 7.4 -24.6°
Enters shadow 21:18:35 50° 296° (WNW) 663 4.4 -24.9°
